FENGYUN 1C DEB, 36707

Orbit data source: Space-Track

FENGYUN 1C DEB, 36707 is space debris in SSO originally from a launch on Mon, 10 May 1999 UTC launched from the Taiyaun Space Center, China (TSC). Fengyun 1C debris stems from the Chinese weather satellite Fengyun-1C, which was intentionally destroyed by a Chinese anti-satellite missile in 2007. This event dramatically increased the amount of space debris, with thousands of trackable fragments posing hazards to satellites and human spaceflight. The Fengyun 1C debris cloud has become a focal point in discussions about space sustainability and the need for international regulations to prevent the creation of new debris.

Loading next visibility...
Identifier
36707, 1999-025EAD
Orbit
SSO
Country
Flag of CNCN / PRC
Related business
Manufacturer
Unknown
Mission
Spacecraft
Bus & Motor
Unknown
Mass
Unknown
Launch date (UTC)
1999-05-10 (27 years ago)
Launch vehicle
Unknown
Launch site
Taiyaun Space Center, China (TSC)
Object type
Payload
Rocket body
Debris
Shape & HBR
Unknown shape, 0.1 m
Radar Cross Section
Small (<0.1 m²)

Expand to show TLE details & history
Last TLE update: 3 days ago

TLE from 3 days ago
0 FENGYUN 1C DEB
1 36707U 99025EAD 26148.92314420  .00001331  00000-0  66563-3 0  9991
2 36707  98.7317 197.3721 0048109   4.3842 355.7745 14.17834651664487
Epoch: 2026-05-28T22:09Z
TLE epoch observation values (Epoch: 2026-05-28T22:09:19.658Z)
Latitude
-0.00007°
Longitude
-21.42071°
Altitude
800.994 km
Speed
7.471 km/s
True Right ascension
13h 09m 29s
True Declination
0° 00' 00"
Sunlit
Object was in full shadow at epoch
Visualization orbit readout
Latitude
Unknown
Longitude
Unknown
Altitude
Unknown
Speed
Unknown
Apparent Right ascension
Unknown
Apparent Declination
Unknown
Sunlit
N/A
Visualization observer readout
Local Sidereal Time
00:26:24
Azimuth
Unknown
Elevation
Unknown
Doppler factor
Unknown
Orbital elements
Apogee altitude
864.524 km
Perigee altitude
795.171 km
Semi-major axis
7,207.985 km
Eccentricity
0.00481
Inclination
98.7317°
RAAN
197.3721°
Arg. of periapsis
4.3842°
True anomaly
355.73363°
Mean anomaly
355.7745°
Eccentric anomaly
355.75409°
Mean motion
3.54668 °/min
Orbital period
101.5 mins
BSTAR
0.00066563
Loading maneuver chart data...
Computing Atmospheric mass density...
Loading historical data...
Loading historical data...
Loading historical data...
Loading historical data...
Loading historical data...
Loading historical data...
Loading historical data...

Documentation

Showing up to 5 results
|